TimeAKST,TemperatureF,Dew PointF,Humidity,Sea Level PressureIn,VisibilityMPH,Wind Direction,Wind SpeedMPH,Gust SpeedMPH,PrecipitationIn,Events,Conditions,WindDirDegrees,DateUTC
12:53 AM,-4.0,-8.0,83,29.84,10.0,WNW,11.5,-,N/A,,Clear,290,2013-03-01 09:53:00
1:53 AM,-2.9,-8.0,79,29.87,10.0,West,16.1,20.7,N/A,,Clear,280,2013-03-01 10:53:00
2:53 AM,-4.0,-9.0,79,29.88,10.0,West,15.0,-,N/A,,Clear,280,2013-03-01 11:53:00
3:53 AM,-2.9,-9.0,75,29.91,10.0,WNW,10.4,-,N/A,,Clear,300,2013-03-01 12:53:00
4:53 AM,-8.0,-11.9,83,29.93,10.0,NW,4.6,-,N/A,,Clear,320,2013-03-01 13:53:00
5:53 AM,-11.0,-16.1,78,29.95,10.0,Calm,Calm,-,N/A,,Clear,0,2013-03-01 14:53:00
6:53 AM,-13.0,-18.0,78,29.98,10.0,Calm,Calm,-,N/A,,Clear,0,2013-03-01 15:53:00
7:53 AM,-15.0,-20.0,78,29.99,10.0,NE,3.5,-,N/A,,Clear,40,2013-03-01 16:53:00
8:53 AM,-13.0,-18.0,78,30.00,10.0,Calm,Calm,-,N/A,,Clear,0,2013-03-01 17:53:00
9:53 AM,-14.1,-18.9,79,30.01,10.0,Calm,Calm,-,N/A,,Clear,0,2013-03-01 18:53:00
10:53 AM,-9.9,-16.1,74,30.03,10.0,NNE,5.8,-,N/A,,Scattered Clouds,30,2013-03-01 19:53:00
11:53 AM,-2.9,-11.0,68,30.04,10.0,Calm,Calm,-,N/A,,Scattered Clouds,0,2013-03-01 20:53:00
12:53 PM,1.9,-6.0,69,30.06,10.0,ENE,5.8,-,N/A,,Partly Cloudy,60,2013-03-01 21:53:00
1:53 PM,1.9,-7.1,66,30.07,10.0,East,5.8,-,N/A,,Scattered Clouds,80,2013-03-01 22:53:00
2:53 PM,1.9,-6.0,69,30.08,10.0,ENE,6.9,-,N/A,,Scattered Clouds,70,2013-03-01 23:53:00
3:53 PM,3.0,-5.1,69,30.09,10.0,East,6.9,-,N/A,,Scattered Clouds,80,2013-03-02 00:53:00
4:53 PM,3.0,-4.0,73,30.10,10.0,ENE,9.2,-,N/A,,Scattered Clouds,70,2013-03-02 01:53:00
5:53 PM,1.9,-4.0,76,30.08,10.0,ENE,5.8,-,N/A,,Scattered Clouds,70,2013-03-02 02:53:00
6:53 PM,1.0,-6.0,72,30.07,10.0,ENE,10.4,-,N/A,,Partly Cloudy,70,2013-03-02 03:53:00
7:53 PM,1.0,-7.1,69,30.06,10.0,East,11.5,-,N/A,,Scattered Clouds,90,2013-03-02 04:53:00
8:53 PM,-0.9,-9.0,69,30.07,10.0,ESE,3.5,-,N/A,,Scattered Clouds,110,2013-03-02 05:53:00
9:53 PM,-4.0,-11.9,69,30.07,10.0,SSW,3.5,-,N/A,,Scattered Clouds,200,2013-03-02 06:53:00
10:53 PM,-6.0,-13.0,72,30.06,10.0,ESE,4.6,-,N/A,,Partly Cloudy,120,2013-03-02 07:53:00
11:53 PM,-4.0,-15.0,59,30.08,10.0,ESE,8.1,-,N/A,,Clear,110,2013-03-02 08:53:00